User: anonymous   Login
Location: Caltech
(34.1382°N, 118.1253°W)
Time: 23:40:17
(UTC-07:00)
Language:

Hamsat - Orbit

View from above orbital plane
View from above orbital plane
View from above satellite
View from above satellite

Ground track
Ground track

The orbit data is extracted from the following two-line orbital elements,

1 28650U 05017B   16238.85064030  .00000416  00000-0  50461-4 0  9991
2 28650  97.6141 217.9380 0024545  31.9813 328.2888 14.88369635612232
Epoch (UTC): 25 August 2016 20:24:55
Eccentricity: 0.0024545
inclination: 97.6141°
perigee height: 586 km
apogee height: 620 km
right ascension of ascending node: 217.9380°
argument of perigee: 31.9813°
revolutions per day: 14.88369635
mean anomaly at epoch: 328.2888°
orbit number at epoch: 61223

The dashed part of the orbit path shows where the satellite is in the earth's shadow,  

DLR